GW5740 Weather Reports


time (UTC)temp
C
wind
direction
speed
KPH
gust
KPH
rain 1hr
cm
rain 24hr
cm
rain mn
cm
humidity
%
barometer
mb
20260506234308 6 148 0.0 0.0 0.00 0.00 2.95 94 1007.8
20260506233809 6 201 1.6 3.2 0.00 0.00 2.95 93 1007.9
20260506233309 6 47 0.0 0.0 0.00 0.00 2.95 93 1007.8
20260506232808 6 284 0.0 0.0 0.00 0.00 2.95 93 1007.9
20260506232308 6 223 1.6 3.2 0.00 0.00 2.95 93 1007.7
20260506231809 6 123 3.2 3.2 0.00 0.00 2.95 93 1007.5
20260506231308 6 347 1.6 3.2 0.00 0.00 2.95 93 1007.2
20260506230809 6 38 3.2 4.8 0.00 0.00 2.95 93 1007.0
20260506230309 6 77 6.4 8.0 0.00 0.00 2.95 93 1006.9
20260506225809 6 84 3.2 3.2 0.00 0.00 2.95 93 1007.0
20260506225308 6 50 0.0 3.2 0.03 0.00 2.95 93 1007.0
20260506224816 6 178 0.0 1.6 0.03 0.00 2.95 93 1006.9
20260506224308 6 293 1.6 3.2 0.03 0.00 2.95 93 1006.6
20260506223810 6 122 0.0 0.0 0.03 0.00 2.95 93 1006.5
20260506223310 6 96 3.2 3.2 0.03 0.00 2.95 93 1006.3
20260506222809 6 81 1.6 3.2 0.03 0.00 2.95 93 1006.5
20260506222309 6 55 3.2 3.2 0.03 0.00 2.92 93 1006.2
20260506221808 6 21 1.6 3.2 0.03 0.00 2.92 93 1006.2
20260506221309 6 329 0.0 1.6 0.03 0.00 2.92 93 1006.2
20260506220810 6 23 1.6 3.2 0.03 0.00 2.92 93 1006.2
20260506220308 6 45 1.6 3.2 0.03 0.00 2.97 93 1006.2
20260506215808 6 156 0.0 3.2 0.03 0.00 2.97 93 1006.4
20260506215309 6 144 3.2 3.2 0.00 0.00 2.97 93 1006.1
20260506214809 6 150 0.0 0.0 0.05 0.00 2.97 93 1006.0
20260506214309 6 81 1.6 3.2 0.05 0.00 2.97 93 1006.0
20260506213808 6 54 1.6 1.6 0.08 0.00 2.97 93 1005.9
20260506212827 7 44 1.6 3.2 0.20 0.00 2.97 93 1005.7
20260506212308 7 72 3.2 3.2 0.03 0.00 2.77 93 1005.7
20260506211809 7 0 0.0 0.0 0.03 0.00 2.77 93 1005.8
20260506211308 7 47 0.0 1.6 0.03 0.00 2.77 93 1005.7
20260506210808 7 186 1.6 3.2 0.03 0.00 2.77 93 1005.7
20260506210309 7 216 1.6 1.6 0.03 0.00 2.79 93 1005.6
20260506205808 7 0 0.0 0.0 0.03 0.00 2.79 93 1005.4
20260506205309 7 22 1.6 3.2 0.03 0.00 2.79 93 1005.3
20260506204809 7 71 0.0 0.0 0.03 0.00 2.79 93 1005.3
20260506204309 7 30 3.2 4.8 0.03 0.00 2.79 93 1005.3
20260506203808 7 63 3.2 3.2 0.03 0.00 2.79 93 1005.5
20260506203309 7 0 0.0 3.2 0.05 0.00 2.77 93 1005.6
20260506202809 7 23 3.2 3.2 0.05 0.00 2.77 93 1005.6
20260506202311 7 67 0.0 1.6 0.08 0.00 2.69 93 1005.6
20260506201808 7 124 1.6 1.6 0.08 0.00 2.69 92 1005.6
20260506201309 7 213 3.2 3.2 0.13 0.00 2.69 93 1005.6
20260506200810 7 37 6.4 6.4 0.20 0.00 2.69 92 1005.3
20260506200310 7 348 3.2 4.8 0.20 0.00 2.69 92 1005.6
20260506195809 7 160 3.2 4.8 0.28 0.00 2.69 93 1005.5
20260506195309 7 62 1.6 3.2 0.46 0.00 2.69 93 1005.7
20260506194809 7 104 3.2 3.2 0.48 0.00 2.69 93 1005.6
20260506194309 7 66 3.2 3.2 0.48 0.00 2.69 93 1005.6
20260506193811 7 229 1.6 3.2 0.48 0.00 2.69 93 1005.8
20260506193310 7 17 3.2 3.2 0.48 0.00 2.69 93 1005.7
20260506192809 7 50 3.2 4.8 0.48 0.00 2.67 93 1005.7
20260506192308 7 20 3.2 4.8 0.41 0.00 2.57 92 1005.7
20260506191810 7 74 3.2 3.2 0.38 0.00 2.54 92 1005.8
20260506191310 7 135 0.0 3.2 0.38 0.00 2.51 92 1005.8
20260506190810 8 235 1.6 3.2 0.41 0.00 2.57 92 1005.9
20260506190309 8 177 3.2 3.2 0.30 0.00 2.51 92 1005.7
20260506185810 8 196 3.2 4.8 0.30 0.00 2.46 92 1005.6
20260506185308 9 9 3.2 4.8 0.23 0.00 2.39 91 1005.4
20260506184810 10 42 4.8 6.4 0.20 0.00 2.29 90 1005.5
20260506184308 12 135 3.2 4.8 0.20 0.00 2.24 89 1005.3
20260506183816 13 33 6.4 6.4 0.23 0.00 2.24 90 1005.2
20260506183309 15 2 1.6 3.2 0.25 0.00 2.21 92 1005.1
20260506182808 15 4 1.6 3.2 0.23 0.00 2.18 92 1005.2
20260506182309 15 264 1.6 3.2 0.23 0.00 2.13 91 1005.2
20260506181810 15 225 4.8 6.4 0.30 0.00 2.13 91 1005.3
20260506181309 15 195 4.8 6.4 0.36 0.00 2.11 91 1005.3
20260506180810 15 191 4.8 6.4 0.36 0.00 2.11 91 1005.3
20260506180309 15 172 6.4 9.7 0.33 0.00 2.06 91 1005.4
20260506175808 15 199 4.8 6.4 0.33 0.00 2.03 90 1005.3
20260506175309 15 192 6.4 9.7 0.36 0.00 2.01 90 1005.4
20260506174808 15 248 6.4 11.3 0.38 0.00 1.98 91 1005.4
20260506174308 15 236 3.2 6.4 0.38 0.00 1.98 91 1005.4
20260506173808 15 212 6.4 9.7 0.41 0.00 1.96 91 1005.5
20260506173308 15 200 6.4 8.0 0.41 0.00 1.93 91 1005.4
20260506172809 15 176 6.4 6.4 0.51 0.00 1.91 91 1005.5
20260506172311 14 209 6.4 8.0 0.51 0.00 1.91 92 1005.5
20260506171808 15 236 3.2 3.2 0.53 0.00 1.88 91 1005.6
20260506171309 14 207 4.8 8.0 0.53 0.00 1.83 91 1005.7
20260506170809 14 233 3.2 4.8 0.53 0.00 1.78 91 1005.7
20260506170309 14 163 1.6 3.2 0.51 0.00 1.75 91 1005.8
20260506165809 14 211 0.0 0.0 0.51 0.00 1.73 91 1005.9
20260506165315 14 178 1.6 4.8 0.51 0.00 1.70 91 1006.1
20260506164808 14 225 6.4 9.7 0.46 0.00 1.65 91 1006.2
20260506164308 14 225 4.8 4.8 0.43 0.00 1.60 92 1006.2
20260506163808 14 216 3.2 4.8 0.43 0.00 1.60 92 1006.2
20260506163308 14 215 4.8 6.4 0.43 0.00 1.52 92 1006.3
20260506162808 14 227 4.8 6.4 0.36 0.00 1.47 92 1006.4
20260506162310 14 276 3.2 3.2 0.36 0.00 1.37 92 1006.4
20260506161810 14 267 1.6 1.6 0.33 0.00 1.32 92 1006.5
20260506161309 14 258 1.6 1.6 0.33 0.00 1.27 92 1006.5
20260506160809 14 245 1.6 1.6 0.36 0.00 1.24 92 1006.5
20260506160308 13 0 0.0 0.0 0.36 0.00 1.19 92 1006.6
20260506155812 13 0 0.0 0.0 0.36 0.00 1.17 92 1006.6
20260506155308 13 255 1.6 1.6 0.38 0.00 1.14 92 1006.7
20260506154809 13 0 0.0 0.0 0.38 0.00 1.12 92 1006.6
20260506154308 13 274 1.6 1.6 0.46 0.00 1.09 92 1006.7
20260506153808 13 256 1.6 3.2 0.43 0.00 1.07 92 1006.7
20260506153308 13 202 1.6 3.2 0.43 0.00 1.04 92 1006.7
20260506152808 13 0 0.0 0.0 0.48 0.00 1.02 92 1006.9
20260506152309 13 228 1.6 3.2 0.46 0.00 0.99 92 1007.0
20260506151810 13 192 0.0 1.6 0.46 0.00 0.99 92 1007.0
20260506151309 13 245 1.6 3.2 0.48 0.00 0.94 92 1007.1
20260506150809 13 199 1.6 3.2 0.43 0.00 0.89 92 1007.1
20260506150311 13 182 3.2 3.2 0.43 0.00 0.86 92 1007.3
20260506145809 13 178 3.2 3.2 0.43 0.00 0.81 91 1007.4
20260506145308 13 236 3.2 3.2 0.38 0.00 0.76 91 1007.6
20260506144809 13 229 1.6 3.2 0.38 0.00 0.74 91 1007.5
20260506144308 13 224 1.6 3.2 0.33 0.00 0.71 91 1007.5
20260506143809 13 206 6.4 8.0 0.33 0.00 0.64 91 1007.8
20260506143310 13 206 1.6 3.2 0.33 0.00 0.61 91 1007.8
20260506142809 13 185 3.2 4.8 0.30 0.00 0.56 91 1007.9
20260506142308 13 207 3.2 3.2 0.30 0.00 0.53 91 1007.9
20260506141809 13 183 3.2 3.2 0.28 0.00 0.51 90 1007.7
20260506141309 13 191 3.2 3.2 0.23 0.00 0.48 91 1007.7
20260506140339 13 197 3.2 4.8 0.20 0.00 0.41 92 1007.6
20260506135809 13 194 3.2 3.2 0.20 0.00 0.36 92 1007.6
20260506135312 13 214 1.6 3.2 0.20 0.00 0.33 92 1007.6
20260506134810 13 226 0.0 3.2 0.15 0.00 0.33 93 1007.5
20260506134309 13 213 3.2 4.8 0.15 0.00 0.30 93 1007.6
20260506133810 13 214 3.2 4.8 0.15 0.00 0.28 94 1007.6
20260506133310 13 0 0.0 0.0 0.13 0.00 0.25 94 1007.5
20260506132810 13 0 0.0 0.0 0.13 0.00 0.23 93 1007.5
20260506132309 13 0 0.0 0.0 0.15 0.00 0.23 94 1007.4
20260506131808 13 0 0.0 0.0 0.13 0.00 0.23 94 1007.4
20260506131311 13 195 0.0 1.6 0.13 0.00 0.20 94 1007.5
20260506130810 13 0 0.0 0.0 0.10 0.00 0.18 93 1007.5
20260506130308 13 0 0.0 0.0 0.10 0.00 0.15 93 1007.6
20260506125809 13 0 0.0 0.0 0.10 0.00 0.15 93 1007.8
20260506125309 13 0 0.0 0.0 0.10 0.00 0.15 93 1007.8
20260506124810 12 0 0.0 0.0 0.10 0.00 0.13 93 1007.9
20260506124309 12 0 0.0 0.0 0.08 0.00 0.13 93 1008.0
20260506123809 12 0 0.0 0.0 0.08 0.00 0.13 93 1008.3
20260506123309 12 0 0.0 0.0 0.05 0.00 0.10 93 1008.1
20260506122809 12 0 0.0 0.0 0.03 0.00 0.10 93 1008.3
20260506122309 12 0 0.0 0.0 0.03 0.00 0.08 93 1008.3
20260506121809 12 0 0.0 0.0 0.03 0.00 0.05 93 1008.1
20260506121309 12 0 0.0 0.0 0.03 0.00 0.05 93 1007.9
20260506120808 12 0 0.0 0.0 0.03 0.00 0.05 93 1007.9
20260506120309 12 0 0.0 0.0 0.03 0.00 0.05 93 1007.8
20260506115808 12 0 0.0 0.0 0.00 0.00 0.05 93 1007.7
20260506115310 12 230 1.6 3.2 0.00 0.00 0.03 93 1007.7
20260506114810 12 0 0.0 0.0 0.00 0.00 0.03 93 1007.5
20260506114309 12 45 0.0 1.6 0.00 0.00 0.03 93 1007.5
20260506113813 12 0 0.0 0.0 0.00 0.00 0.03 93 1007.7
20260506113312 11 0 0.0 0.0 0.00 0.00 0.03 93 1007.7
20260506112810 11 347 0.0 1.6 0.00 0.00 0.03 93 1007.7
20260506112310 11 0 0.0 0.0 0.00 0.00 0.03 93 1007.8
20260506111810 11 225 0.0 0.0 0.00 0.00 0.03 93 1007.9
20260506111311 11 212 0.0 1.6 0.00 0.00 0.03 93 1007.9
20260506110808 11 0 0.0 0.0 0.00 0.00 0.03 93 1007.5
20260506110310 11 16 1.6 3.2 0.00 0.00 0.03 93 1007.6
20260506105811 11 0 0.0 0.0 0.00 0.00 0.03 93 1007.7
20260506105310 11 0 0.0 0.0 0.00 0.00 0.03 93 1007.6
20260506104810 11 224 3.2 3.2 0.00 0.00 0.03 93 1007.6
20260506104311 11 0 0.0 0.0 0.00 0.00 0.03 93 1007.4
20260506103808 11 0 0.0 0.0 0.00 0.00 0.03 93 1007.5
20260506103311 11 0 0.0 0.0 0.00 0.00 0.03 93 1007.3
20260506102811 11 0 0.0 0.0 0.00 0.00 0.03 93 1007.2
20260506102309 11 0 0.0 0.0 0.00 0.00 0.03 93 1007.2
20260506101811 11 173 0.0 0.0 0.00 0.00 0.03 92 1007.2
20260506101310 11 0 0.0 0.0 0.00 0.00 0.03 93 1007.1
20260506100810 11 10 0.0 0.0 0.00 0.00 0.03 93 1007.1
20260506100308 11 18 1.6 3.2 0.00 0.00 0.03 93 1007.2
20260506095809 11 0 0.0 0.0 0.00 0.00 0.03 93 1007.3
20260506095309 11 0 0.0 0.0 0.00 0.00 0.03 93 1007.3
20260506094808 11 0 0.0 0.0 0.00 0.00 0.03 93 1007.2
20260506094308 11 0 0.0 0.0 0.00 0.00 0.03 93 1007.1
20260506093809 11 0 0.0 0.0 0.00 0.00 0.03 93 1007.1
20260506093309 11 0 0.0 0.0 0.00 0.00 0.03 93 1007.0
20260506092809 11 0 0.0 0.0 0.00 0.00 0.03 92 1007.1
20260506092309 12 0 0.0 0.0 0.00 0.00 0.03 93 1007.2
20260506091808 11 0 0.0 0.0 0.00 0.00 0.03 93 1007.3
20260506091308 11 0 0.0 0.0 0.00 0.00 0.03 92 1007.1
20260506090809 11 0 0.0 0.0 0.00 0.00 0.03 92 1007.1
20260506090309 11 0 0.0 0.0 0.00 0.00 0.03 92 1007.2
20260506085809 12 0 0.0 0.0 0.00 0.00 0.03 92 1007.4
20260506085309 12 0 0.0 0.0 0.00 0.00 0.03 92 1007.4
20260506084808 12 20 0.0 1.6 0.00 0.00 0.03 92 1007.4
20260506084308 12 0 0.0 0.0 0.00 0.00 0.03 92 1007.5
20260506083809 12 0 0.0 0.0 0.00 0.00 0.03 92 1007.7
20260506083308 12 0 0.0 0.0 0.00 0.00 0.03 92 1007.8
20260506082808 12 0 0.0 0.0 0.00 0.00 0.03 92 1007.7
20260506082308 12 0 0.0 0.0 0.00 0.00 0.03 92 1007.7
20260506081808 12 0 0.0 0.0 0.00 0.00 0.03 92 1007.7
20260506081308 12 335 0.0 0.0 0.00 0.00 0.03 92 1007.8
20260506080808 12 0 0.0 0.0 0.00 0.00 0.03 92 1007.7
20260506080308 12 0 0.0 0.0 0.00 0.00 0.03 92 1008.1
20260506073308 12 0 0.0 0.0 0.00 0.00 0.03 92 1008.1
20260506072809 12 0 0.0 0.0 0.00 0.00 0.03 91 1008.1
20260506072310 12 0 0.0 0.0 0.00 0.00 0.03 91 1008.0
20260506071809 12 0 0.0 0.0 0.00 0.00 0.03 91 1008.0
20260506071308 12 204 0.0 0.0 0.00 0.00 0.03 91 1008.0
20260506070808 13 0 0.0 0.0 0.00 0.00 0.03 91 1008.0
20260506070310 13 0 0.0 0.0 0.00 0.00 0.03 91 1008.0
20260506062309 13 0 0.0 0.0 0.00 0.00 0.03 90 1008.4
20260506061808 13 0 0.0 0.0 0.00 0.00 0.03 90 1008.3
20260506061308 13 0 0.0 0.0 0.00 0.00 0.03 90 1008.5
20260506060809 13 0 0.0 0.0 0.00 0.00 0.03 90 1008.4
20260506060310 13 0 0.0 0.0 0.00 0.00 0.03 90 1008.3
20260506051309 14 27 4.8 4.8 0.03 0.00 0.03 87 1008.7
20260506050809 14 23 3.2 4.8 0.03 0.00 0.03 87 1008.8
20260506050309 15 335 1.6 1.6 0.03 0.00 0.03 86 1009.1
20260506044808 15 301 1.6 3.2 0.03 0.00 0.03 83 1009.2
20260506044309 15 309 1.6 3.2 0.00 0.00 0.03 83 1009.0
20260506043809 15 344 1.6 3.2 0.00 0.00 0.00 83 1008.8
20260506043308 15 121 3.2 3.2 0.00 0.00 0.00 79 1009.0
20260506042808 15 277 3.2 3.2 0.00 0.00 0.00 80 1009.0
20260506042309 15 0 0.0 0.0 0.00 0.00 0.00 80 1008.5
20260506041808 15 0 0.0 0.0 0.00 0.00 0.00 78 1008.6
20260506041309 15 21 0.0 0.0 0.00 0.00 0.00 80 1008.5
20260506040809 15 357 1.6 1.6 0.00 0.00 0.00 79 1008.6
20260506040308 15 338 1.6 3.2 0.00 0.00 0.00 77 1008.7
20260506035816 15 235 0.0 1.6 0.00 0.00 0.71 78 1008.7
20260506035308 15 265 1.6 1.6 0.00 0.00 0.71 79 1008.7
20260506034809 15 0 0.0 0.0 0.00 0.00 0.71 79 1008.6
20260506034309 15 0 0.0 0.0 0.00 0.00 0.71 81 1008.5
20260506033818 15 278 0.0 1.6 0.00 0.00 0.71 81 1008.6
20260506033309 16 244 0.0 1.6 0.00 0.00 0.71 79 1008.5
20260506032808 16 275 1.6 1.6 0.00 0.00 0.71 76 1008.1
20260506032310 16 261 0.0 1.6 0.00 0.00 0.71 75 1008.0
20260506031808 16 240 1.6 3.2 0.00 0.00 0.71 73 1008.3
20260506031308 16 216 6.4 8.0 0.00 0.00 0.71 72 1008.1
20260506030808 16 271 1.6 3.2 0.00 0.00 0.71 72 1008.0
20260506030308 16 244 1.6 3.2 0.00 0.00 0.71 72 1008.1
20260506025809 17 243 3.2 4.8 0.00 0.00 0.71 70 1008.0
20260506025308 16 228 4.8 8.0 0.00 0.00 0.71 71 1008.0
20260506024808 16 268 3.2 3.2 0.00 0.00 0.71 73 1008.1
20260506024309 16 227 3.2 4.8 0.00 0.00 0.71 72 1008.1
20260506023808 16 274 1.6 4.8 0.00 0.00 0.71 75 1008.1
20260506023308 17 245 0.0 3.2 0.00 0.00 0.71 70 1008.0
20260506022808 17 237 3.2 3.2 0.00 0.00 0.71 71 1008.1
20260506022308 17 231 1.6 4.8 0.00 0.00 0.71 69 1008.1
20260506021808 17 249 3.2 4.8 0.00 0.00 0.71 68 1008.0
20260506021309 17 267 1.6 6.4 0.00 0.00 0.71 70 1007.9
20260506020808 17 249 3.2 4.8 0.00 0.00 0.71 71 1007.9
20260506020308 17 234 1.6 3.2 0.00 0.00 0.71 69 1007.9
20260506015808 17 226 1.6 4.8 0.00 0.00 0.71 68 1007.8
20260506015308 17 243 3.2 6.4 0.00 0.00 0.71 69 1007.9
20260506014808 17 245 1.6 3.2 0.00 0.00 0.71 70 1007.8
20260506014308 17 215 4.8 6.4 0.00 0.00 0.71 69 1007.7
20260506013809 17 219 3.2 4.8 0.00 0.00 0.71 69 1007.6
20260506013308 17 245 3.2 4.8 0.00 0.00 0.71 68 1007.6
20260506012809 17 236 3.2 6.4 0.00 0.00 0.71 69 1007.6
20260506012308 17 228 3.2 6.4 0.00 0.00 0.71 70 1007.6
20260506011808 16 226 3.2 4.8 0.00 0.00 0.71 69 1007.5
20260506011308 16 218 4.8 8.0 0.00 0.00 0.71 70 1007.5
20260506010809 16 254 4.8 8.0 0.00 0.00 0.71 72 1007.6
20260506010309 16 227 3.2 4.8 0.00 0.00 0.71 70 1007.4
20260506005809 16 265 1.6 3.2 0.00 0.00 0.71 71 1007.3
20260506005309 16 257 1.6 3.2 0.00 0.00 0.71 72 1007.2
20260506004809 15 255 3.2 4.8 0.00 0.00 0.71 73 1007.1
20260506004311 15 265 3.2 4.8 0.00 0.00 0.71 77 1007.0
20260506003809 15 0 0.0 0.0 0.03 0.00 0.71 77 1006.9
20260506003308 15 259 3.2 4.8 0.03 0.00 0.71 75 1006.9
20260506002809 16 231 1.6 3.2 0.03 0.00 0.71 75 1006.9
20260506002310 16 272 1.6 3.2 0.05 0.00 0.71 77 1006.7
20260506001808 16 202 0.0 3.2 0.05 0.00 0.71 74 1006.6
20260506001308 16 296 3.2 6.4 0.05 0.00 0.71 73 1006.5
20260506000808 16 274 3.2 3.2 0.05 0.00 0.71 72 1006.5
20260506000309 16 263 1.6 1.6 0.08 0.00 0.71 74 1006.7
20260505235808 16 256 0.0 3.2 0.08 0.00 0.71 74 1006.7
20260505235308 16 211 1.6 3.2 0.05 0.00 0.71 74 1006.7
20260505234809 16 294 3.2 3.2 0.05 0.00 0.71 77 1006.5